ASA1356 PANC-KSEA

Flight info

Callsign ASA1356
Flight time N/A
Altitude 37000
Route TED J804R EEDEN JOWEN YZP J523 YZT Q902 ARRUE OLM OLM2
Aircraft B738/M-SDE2E3FGHIRWXY/LB1

Departure

Time 2026-04-30 20:26
Airport Ted Stevens Anchorage International Airport (PANC)

Arrival

Time N/A
Airport Seattle–Tacoma International Airport (KSEA)
Time Latitude Longitude Altitude Speed Heading
2026-04-30 20:13 61.17214 -149.98396 110 ft 0 kts 358°
2026-04-30 20:15 61.17204 -149.98396 111 ft 3 kts 358°
2026-04-30 20:16 61.17184 -149.98395 110 ft 3 kts 358°
2026-04-30 20:16 61.17164 -149.98393 112 ft 3 kts 358°
2026-04-30 20:16 61.17144 -149.98392 110 ft 3 kts 358°
2026-04-30 20:16 61.17126 -149.98388 114 ft 3 kts 328°
2026-04-30 20:17 61.17117 -149.98366 114 ft 2 kts 273°
2026-04-30 20:17 61.17117 -149.98342 114 ft 3 kts 270°
2026-04-30 20:17 61.17117 -149.98312 114 ft 1 kts 270°
2026-04-30 20:17 61.17117 -149.98311 114 ft 1 kts 270°
2026-04-30 20:20 61.17117 -149.98360 114 ft 8 kts 269°
2026-04-30 20:20 61.17116 -149.98504 114 ft 12 kts 270°
2026-04-30 20:20 61.17117 -149.98701 113 ft 16 kts 270°
2026-04-30 20:20 61.17121 -149.98960 115 ft 20 kts 273°
2026-04-30 20:21 61.17125 -149.99253 118 ft 20 kts 269°
2026-04-30 20:21 61.17139 -149.99493 123 ft 16 kts 308°
2026-04-30 20:21 61.17243 -149.99573 119 ft 17 kts 345°
2026-04-30 20:21 61.17368 -149.99645 121 ft 21 kts 345°
2026-04-30 20:22 61.17532 -149.99737 120 ft 28 kts 345°
2026-04-30 20:22 61.17737 -149.99850 117 ft 33 kts 345°
2026-04-30 20:22 61.17972 -149.99981 113 ft 36 kts 345°
2026-04-30 20:22 61.18217 -150.00118 119 ft 37 kts 345°
2026-04-30 20:23 61.18464 -150.00257 120 ft 37 kts 345°
2026-04-30 20:23 61.18708 -150.00393 126 ft 37 kts 345°
2026-04-30 20:23 61.18955 -150.00532 132 ft 37 kts 344°
2026-04-30 20:23 61.19199 -150.00667 139 ft 36 kts 345°
2026-04-30 20:24 61.19439 -150.00801 146 ft 35 kts 345°
2026-04-30 20:24 61.19667 -150.00927 152 ft 32 kts 345°
2026-04-30 20:24 61.19857 -150.01034 156 ft 17 kts 345°
2026-04-30 20:24 61.19970 -150.01106 158 ft 17 kts 330°
2026-04-30 20:25 61.19895 -150.01408 158 ft 16 kts 164°
2026-04-30 20:25 61.19872 -150.01395 157 ft 0 kts 165°
2026-04-30 20:26 61.19694 -150.01294 154 ft 55 kts 165°
2026-04-30 20:26 61.17980 -150.00332 335 ft 176 kts 165°
2026-04-30 20:26 61.16803 -149.99687 1271 ft 179 kts 164°
2026-04-30 20:27 61.14923 -149.96283 2949 ft 212 kts 132°
2026-04-30 20:27 61.12829 -149.91309 3873 ft 246 kts 131°
2026-04-30 20:28 61.10492 -149.85831 5448 ft 258 kts 132°
2026-04-30 20:28 61.08076 -149.80229 7152 ft 264 kts 133°
2026-04-30 20:29 61.05587 -149.74509 8778 ft 271 kts 133°
2026-04-30 20:30 61.01700 -149.65636 10560 ft 303 kts 136°
2026-04-30 20:30 60.97074 -149.55158 12076 ft 342 kts 137°
2026-04-30 20:31 60.92166 -149.44057 14089 ft 356 kts 138°
2026-04-30 20:32 60.87096 -149.32664 15919 ft 369 kts 138°
2026-04-30 20:32 60.83578 -149.24798 17192 ft 377 kts 138°
2026-04-30 20:33 60.81795 -149.20815 17792 ft 381 kts 138°
2026-04-30 20:33 60.78151 -149.12703 18857 ft 389 kts 138°
2026-04-30 20:33 60.76315 -149.08625 19458 ft 392 kts 138°
2026-04-30 20:34 60.72561 -149.00323 20468 ft 401 kts 138°
2026-04-30 20:34 60.68745 -148.91900 21536 ft 407 kts 138°
2026-04-30 20:35 60.66808 -148.87640 21990 ft 412 kts 138°
2026-04-30 20:35 60.64877 -148.83403 22484 ft 414 kts 138°
2026-04-30 20:35 60.60926 -148.74754 23434 ft 419 kts 138°
2026-04-30 20:36 60.58927 -148.70392 23849 ft 423 kts 138°
2026-04-30 20:36 60.56910 -148.66000 24214 ft 427 kts 138°
2026-04-30 20:36 60.52839 -148.57152 25104 ft 430 kts 138°
2026-04-30 20:37 60.50786 -148.52702 25506 ft 433 kts 138°
2026-04-30 20:37 60.48720 -148.48239 25858 ft 435 kts 138°
2026-04-30 20:37 60.46629 -148.43772 26239 ft 437 kts 138°
2026-04-30 20:37 60.44514 -148.39334 26638 ft 438 kts 139°
2026-04-30 20:38 60.42380 -148.34894 26994 ft 441 kts 139°
2026-04-30 20:38 60.40253 -148.30482 27341 ft 443 kts 139°
2026-04-30 20:38 60.38092 -148.26005 27670 ft 446 kts 138°
2026-04-30 20:39 60.33735 -148.16981 28318 ft 450 kts 138°
2026-04-30 20:39 60.31539 -148.12440 28619 ft 452 kts 138°
2026-04-30 20:39 60.29365 -148.07951 28934 ft 454 kts 138°
2026-04-30 20:40 60.24934 -147.98827 29521 ft 458 kts 138°
2026-04-30 20:40 60.22698 -147.94238 29799 ft 459 kts 138°
2026-04-30 20:40 60.20453 -147.89638 30052 ft 461 kts 138°
2026-04-30 20:41 60.15938 -147.80416 30599 ft 463 kts 138°
2026-04-30 20:41 60.13679 -147.75814 30950 ft 462 kts 138°
2026-04-30 20:41 60.11426 -147.71237 31365 ft 459 kts 138°
2026-04-30 20:41 60.09190 -147.66700 31793 ft 456 kts 138°
2026-04-30 20:42 60.06967 -147.62199 32164 ft 454 kts 139°
2026-04-30 20:42 60.04749 -147.57721 32457 ft 453 kts 139°
2026-04-30 20:42 60.00311 -147.48793 33096 ft 450 kts 139°
2026-04-30 20:43 59.98110 -147.44372 33438 ft 448 kts 139°
2026-04-30 20:43 59.95913 -147.39970 33787 ft 446 kts 139°
2026-04-30 20:43 59.93743 -147.35636 33987 ft 447 kts 139°
2026-04-30 20:44 59.89320 -147.26827 34416 ft 448 kts 139°
2026-04-30 20:44 59.87112 -147.22438 34666 ft 448 kts 139°
2026-04-30 20:44 59.82713 -147.13728 35055 ft 449 kts 139°
2026-04-30 20:45 59.78274 -147.04969 35493 ft 449 kts 139°
2026-04-30 20:45 59.76051 -147.00593 35680 ft 450 kts 139°
2026-04-30 20:45 59.73824 -146.96221 35856 ft 450 kts 139°
2026-04-30 20:46 59.67120 -146.83113 36367 ft 452 kts 140°
2026-04-30 20:46 59.64899 -146.78788 36519 ft 453 kts 139°
2026-04-30 20:47 59.60393 -146.70036 36956 ft 451 kts 139°
2026-04-30 20:47 59.58402 -146.66177 37219 ft 448 kts 140°
2026-04-30 20:48 59.51671 -146.53188 37215 ft 450 kts 140°
2026-04-30 20:48 59.47219 -146.44635 37213 ft 444 kts 140°
2026-04-30 20:49 59.42850 -146.36159 37215 ft 444 kts 135°
2026-04-30 20:50 59.37756 -146.20855 37217 ft 449 kts 124°
2026-04-30 20:50 59.34618 -146.10274 37223 ft 449 kts 124°
2026-04-30 20:51 59.31432 -145.99707 37221 ft 451 kts 124°
2026-04-30 20:51 59.26572 -145.83857 37223 ft 454 kts 125°
2026-04-30 20:52 59.23318 -145.73337 37224 ft 456 kts 125°
2026-04-30 20:53 59.18363 -145.57407 37220 ft 458 kts 125°
2026-04-30 20:53 59.15043 -145.46780 37224 ft 459 kts 125°
2026-04-30 20:54 59.10033 -145.30840 37208 ft 459 kts 125°
2026-04-30 20:55 59.05041 -145.15067 37208 ft 457 kts 125°
2026-04-30 20:55 59.01704 -145.04581 37200 ft 455 kts 125°
2026-04-30 20:56 58.96709 -144.88981 37200 ft 452 kts 126°
2026-04-30 20:57 58.91746 -144.73581 37199 ft 450 kts 126°
2026-04-30 20:57 58.88416 -144.63303 37195 ft 450 kts 126°
2026-04-30 20:58 58.83438 -144.48016 37196 ft 449 kts 126°
2026-04-30 20:58 58.80103 -144.37831 37187 ft 449 kts 126°
2026-04-30 20:59 58.75082 -144.22583 37201 ft 448 kts 126°
2026-04-30 21:00 58.68367 -144.02344 37204 ft 448 kts 126°
2026-04-30 21:01 58.63325 -143.87262 37204 ft 449 kts 126°
2026-04-30 21:02 58.58242 -143.72151 37203 ft 449 kts 126°
2026-04-30 21:02 58.54842 -143.62093 37206 ft 450 kts 126°
2026-04-30 21:03 58.51452 -143.52115 37201 ft 450 kts 126°
2026-04-30 21:03 58.48030 -143.42082 37204 ft 450 kts 127°
2026-04-30 21:04 58.44606 -143.32084 37200 ft 450 kts 127°
2026-04-30 21:04 58.39444 -143.17092 37209 ft 450 kts 127°
2026-04-30 21:05 58.36015 -143.07185 37212 ft 450 kts 127°
2026-04-30 21:05 58.32556 -142.97234 37213 ft 450 kts 127°
2026-04-30 21:06 58.29109 -142.87360 37213 ft 450 kts 127°
2026-04-30 21:06 58.25634 -142.77447 37213 ft 450 kts 127°
2026-04-30 21:07 58.22740 -142.69218 37212 ft 450 kts 127°
2026-04-30 21:07 58.19249 -142.59333 37215 ft 450 kts 127°
2026-04-30 21:08 58.15753 -142.49476 37211 ft 450 kts 127°
2026-04-30 21:08 58.12249 -142.39632 37215 ft 450 kts 127°
2026-04-30 21:09 58.08765 -142.29886 37223 ft 449 kts 127°
2026-04-30 21:09 58.05248 -142.20093 37221 ft 449 kts 127°
2026-04-30 21:10 58.01730 -142.10336 37223 ft 449 kts 127°
2026-04-30 21:10 57.98233 -142.00674 37222 ft 448 kts 127°
2026-04-30 21:11 57.94713 -141.90991 37221 ft 448 kts 128°
2026-04-30 21:11 57.91186 -141.81313 37220 ft 448 kts 128°
2026-04-30 21:12 57.87631 -141.71660 37221 ft 448 kts 128°
2026-04-30 21:12 57.84010 -141.62144 37223 ft 448 kts 129°
2026-04-30 21:13 57.80367 -141.52655 37220 ft 448 kts 129°
2026-04-30 21:13 57.76746 -141.43239 37221 ft 448 kts 129°
2026-04-30 21:14 57.73094 -141.33753 37229 ft 448 kts 129°
2026-04-30 21:14 57.69445 -141.24305 37220 ft 448 kts 129°
2026-04-30 21:15 57.65786 -141.14866 37217 ft 447 kts 129°
2026-04-30 21:15 57.62136 -141.05490 37217 ft 445 kts 129°
2026-04-30 21:16 57.58513 -140.96215 37221 ft 444 kts 129°
2026-04-30 21:16 57.54870 -140.86927 37219 ft 444 kts 129°
2026-04-30 21:17 57.51218 -140.77657 37210 ft 444 kts 129°
2026-04-30 21:17 57.47552 -140.68384 37204 ft 445 kts 129°
2026-04-30 21:18 57.43882 -140.59137 37204 ft 445 kts 129°
2026-04-30 21:18 57.40217 -140.49932 37204 ft 446 kts 129°
2026-04-30 21:19 57.36509 -140.40666 37205 ft 447 kts 129°
2026-04-30 21:19 57.32801 -140.31431 37202 ft 447 kts 130°
2026-04-30 21:20 57.29102 -140.22257 37203 ft 448 kts 130°
2026-04-30 21:20 57.25368 -140.13026 37209 ft 448 kts 130°
2026-04-30 21:21 57.21632 -140.03828 37214 ft 448 kts 130°
2026-04-30 21:22 57.16010 -139.90052 37214 ft 448 kts 130°
2026-04-30 21:23 57.08483 -139.71729 37204 ft 449 kts 130°
2026-04-30 21:23 57.02838 -139.58075 37229 ft 448 kts 130°
2026-04-30 21:24 56.99064 -139.48989 37233 ft 448 kts 130°
2026-04-30 21:24 56.95279 -139.39913 37247 ft 447 kts 130°
2026-04-30 21:25 56.89597 -139.26354 37249 ft 447 kts 130°
2026-04-30 21:26 56.83919 -139.12881 37249 ft 447 kts 130°
2026-04-30 21:27 56.78207 -138.99402 37249 ft 448 kts 130°
2026-04-30 21:27 56.74384 -138.90422 37249 ft 448 kts 130°
2026-04-30 21:28 56.68659 -138.77043 37248 ft 448 kts 130°
2026-04-30 21:29 56.62892 -138.63629 37254 ft 449 kts 130°
2026-04-30 21:30 56.53245 -138.41360 37257 ft 449 kts 130°
2026-04-30 21:31 56.43552 -138.19201 37254 ft 450 kts 130°
2026-04-30 21:32 56.37696 -138.05899 37257 ft 451 kts 131°
2026-04-30 21:32 56.33803 -137.97101 37258 ft 451 kts 131°
2026-04-30 21:33 56.27924 -137.83878 37259 ft 451 kts 131°
2026-04-30 21:34 56.23998 -137.75087 37258 ft 451 kts 131°
2026-04-30 21:34 56.18109 -137.61958 37257 ft 451 kts 131°
2026-04-30 21:35 56.14155 -137.53183 37258 ft 451 kts 131°
2026-04-30 21:35 56.10203 -137.44445 37258 ft 451 kts 131°
2026-04-30 21:36 56.06249 -137.35734 37259 ft 450 kts 131°
2026-04-30 21:37 55.98385 -137.18497 37257 ft 449 kts 131°
2026-04-30 21:37 55.94427 -137.09862 37255 ft 449 kts 131°
2026-04-30 21:38 55.90451 -137.01263 37256 ft 449 kts 134°
2026-04-30 21:38 55.85841 -136.93862 37263 ft 446 kts 143°
2026-04-30 21:39 55.80990 -136.86950 37259 ft 447 kts 143°
2026-04-30 21:39 55.76132 -136.80022 37258 ft 448 kts 143°
2026-04-30 21:40 55.71274 -136.73037 37259 ft 449 kts 143°
2026-04-30 21:40 55.66450 -136.66087 37258 ft 451 kts 143°
2026-04-30 21:41 55.61575 -136.59083 37256 ft 451 kts 143°
2026-04-30 21:41 55.56691 -136.52084 37260 ft 451 kts 143°
2026-04-30 21:42 55.51827 -136.45144 37263 ft 451 kts 143°
2026-04-30 21:42 55.46937 -136.38185 37266 ft 451 kts 143°
2026-04-30 21:43 55.42869 -136.32414 37266 ft 451 kts 143°
2026-04-30 21:43 55.37177 -136.24371 37268 ft 451 kts 143°
2026-04-30 21:44 55.32279 -136.17473 37267 ft 450 kts 143°
2026-04-30 21:44 55.27387 -136.10603 37265 ft 450 kts 143°
2026-04-30 21:45 55.22489 -136.03748 37268 ft 450 kts 143°
2026-04-30 21:45 55.17621 -135.96958 37258 ft 450 kts 143°
2026-04-30 21:46 55.12720 -135.90145 37256 ft 450 kts 143°
2026-04-30 21:46 55.07798 -135.83323 37258 ft 450 kts 143°
2026-04-30 21:47 55.02883 -135.76533 37257 ft 450 kts 144°
2026-04-30 21:47 54.97996 -135.69802 37258 ft 450 kts 144°
2026-04-30 21:48 54.93082 -135.63058 37259 ft 450 kts 144°
2026-04-30 21:48 54.88153 -135.56314 37257 ft 450 kts 144°
2026-04-30 21:49 54.83222 -135.49589 37259 ft 451 kts 144°
2026-04-30 21:49 54.78285 -135.42872 37258 ft 451 kts 144°
2026-04-30 21:50 54.73365 -135.36208 37255 ft 452 kts 144°
2026-04-30 21:50 54.68413 -135.29520 37259 ft 452 kts 144°
2026-04-30 21:51 54.63440 -135.22824 37260 ft 452 kts 144°
2026-04-30 21:51 54.58475 -135.16160 37255 ft 453 kts 144°
2026-04-30 21:52 54.53499 -135.09500 37260 ft 452 kts 144°
2026-04-30 21:52 54.48523 -135.02862 37259 ft 452 kts 144°
2026-04-30 21:53 54.43578 -134.96287 37257 ft 452 kts 144°
2026-04-30 21:53 54.38602 -134.89693 37257 ft 451 kts 144°
2026-04-30 21:54 54.34456 -134.84213 37258 ft 451 kts 144°
2026-04-30 21:54 54.29481 -134.77657 37258 ft 451 kts 144°
2026-04-30 21:55 54.23698 -134.70058 37263 ft 450 kts 144°
2026-04-30 21:55 54.19540 -134.64613 37267 ft 449 kts 144°
2026-04-30 21:56 54.14570 -134.58122 37270 ft 449 kts 145°
2026-04-30 21:56 54.09750 -134.51440 37257 ft 451 kts 136°
2026-04-30 21:57 54.06062 -134.42759 37263 ft 455 kts 118°
2026-04-30 21:57 54.03253 -134.33073 37265 ft 456 kts 117°
2026-04-30 21:58 54.00476 -134.23375 37266 ft 456 kts 118°
2026-04-30 21:58 53.97657 -134.13717 37270 ft 456 kts 118°
2026-04-30 21:59 53.94816 -134.04123 37266 ft 456 kts 118°
2026-04-30 22:00 53.90515 -133.89704 37269 ft 456 kts 118°
2026-04-30 22:00 53.86212 -133.75365 37267 ft 456 kts 119°
2026-04-30 22:01 53.83324 -133.65784 37268 ft 457 kts 119°
2026-04-30 22:01 53.80426 -133.56209 37269 ft 457 kts 119°
2026-04-30 22:02 53.77523 -133.46657 37267 ft 456 kts 119°
2026-04-30 22:02 53.74613 -133.37121 37267 ft 456 kts 120°
2026-04-30 22:03 53.71714 -133.27652 37267 ft 456 kts 120°
2026-04-30 22:03 53.68790 -133.18144 37266 ft 456 kts 120°
2026-04-30 22:04 53.65852 -133.08625 37266 ft 457 kts 120°
2026-04-30 22:05 53.61433 -132.94381 37267 ft 457 kts 120°
2026-04-30 22:05 53.58499 -132.84971 37266 ft 456 kts 120°
2026-04-30 22:06 53.55539 -132.75520 37275 ft 456 kts 121°
2026-04-30 22:06 53.51085 -132.61362 37263 ft 456 kts 121°
2026-04-30 22:07 53.48107 -132.51940 37269 ft 456 kts 121°
2026-04-30 22:07 53.45129 -132.42560 37272 ft 455 kts 121°
2026-04-30 22:08 53.42148 -132.33200 37268 ft 454 kts 121°
2026-04-30 22:08 53.39186 -132.23928 37266 ft 453 kts 121°
2026-04-30 22:09 53.36202 -132.14632 37271 ft 452 kts 121°
2026-04-30 22:09 53.33216 -132.05368 37265 ft 452 kts 121°
2026-04-30 22:10 53.30223 -131.96112 37271 ft 451 kts 122°
2026-04-30 22:10 53.27232 -131.86890 37266 ft 451 kts 122°
2026-04-30 22:11 53.23966 -131.78069 37255 ft 445 kts 134°
2026-04-30 22:11 53.21927 -131.74159 37274 ft 444 kts 135°
2026-04-30 22:12 53.17781 -131.66494 37270 ft 445 kts 136°
2026-04-30 22:12 53.13661 -131.58878 37264 ft 445 kts 136°
2026-04-30 22:13 53.09527 -131.51180 37269 ft 446 kts 136°
2026-04-30 22:13 53.05393 -131.43459 37268 ft 447 kts 136°
2026-04-30 22:14 53.01250 -131.35731 37270 ft 448 kts 136°
2026-04-30 22:14 52.97097 -131.28012 37268 ft 449 kts 136°
2026-04-30 22:15 52.92924 -131.20283 37267 ft 449 kts 136°
2026-04-30 22:15 52.88768 -131.12610 37269 ft 450 kts 136°
2026-04-30 22:16 52.84578 -131.04899 37268 ft 450 kts 136°
2026-04-30 22:17 52.76199 -130.89551 37255 ft 451 kts 136°
2026-04-30 22:17 52.69885 -130.78054 37257 ft 450 kts 137°
2026-04-30 22:18 52.63580 -130.66614 37256 ft 449 kts 137°
2026-04-30 22:19 52.57274 -130.55227 37257 ft 449 kts 137°
2026-04-30 22:20 52.50960 -130.43876 37256 ft 448 kts 137°
2026-04-30 22:20 52.44667 -130.32623 37252 ft 448 kts 137°
2026-04-30 22:21 52.40436 -130.25088 37248 ft 449 kts 137°
2026-04-30 22:21 52.36195 -130.17557 37252 ft 450 kts 137°
2026-04-30 22:22 52.31937 -130.10014 37242 ft 451 kts 137°
2026-04-30 22:22 52.27670 -130.02480 37238 ft 452 kts 138°
2026-04-30 22:23 52.23421 -129.94999 37240 ft 453 kts 138°
2026-04-30 22:23 52.19127 -129.87462 37230 ft 453 kts 138°
2026-04-30 22:24 52.14826 -129.79938 37228 ft 453 kts 138°
2026-04-30 22:24 52.10527 -129.72439 37232 ft 453 kts 138°
2026-04-30 22:25 52.06221 -129.64952 37229 ft 453 kts 138°
2026-04-30 22:25 52.01910 -129.57477 37224 ft 452 kts 138°
2026-04-30 22:26 51.95449 -129.46315 37228 ft 451 kts 138°
2026-04-30 22:27 51.91173 -129.38956 37230 ft 451 kts 138°
2026-04-30 22:27 51.84726 -129.27905 37230 ft 449 kts 138°
2026-04-30 22:28 51.78280 -129.16904 37233 ft 448 kts 138°
2026-04-30 22:29 51.69686 -129.02310 37229 ft 447 kts 138°
2026-04-30 22:31 51.54685 -128.77048 37229 ft 445 kts 139°
2026-04-30 22:32 51.43972 -128.59164 37227 ft 445 kts 138°
2026-04-30 22:33 51.33239 -128.41367 37234 ft 445 kts 139°
2026-04-30 22:35 51.22443 -128.23612 37222 ft 445 kts 139°
2026-04-30 22:36 51.11630 -128.05936 37223 ft 446 kts 139°
2026-04-30 22:37 51.02969 -127.91875 37222 ft 446 kts 139°
2026-04-30 22:38 50.94277 -127.77840 37220 ft 445 kts 139°
2026-04-30 22:39 50.87756 -127.67363 37220 ft 444 kts 139°
2026-04-30 22:40 50.74747 -127.46595 37220 ft 444 kts 139°
2026-04-30 22:41 50.65049 -127.29725 37221 ft 449 kts 130°
2026-04-30 22:43 50.54017 -127.05935 37221 ft 449 kts 130°
2026-04-30 22:44 50.46549 -126.90192 37226 ft 449 kts 130°
2026-04-30 22:45 50.35291 -126.66642 37204 ft 450 kts 130°
2026-04-30 22:47 50.24000 -126.43235 37188 ft 450 kts 130°
2026-04-30 22:48 50.16454 -126.27702 37197 ft 451 kts 130°
2026-04-30 22:49 50.05022 -126.04355 37170 ft 452 kts 130°
2026-04-30 22:51 49.93581 -125.81187 37184 ft 451 kts 130°
2026-04-30 22:52 49.87826 -125.69608 37167 ft 451 kts 131°
2026-04-30 22:53 49.80146 -125.54241 37165 ft 451 kts 131°
2026-04-30 22:53 49.74395 -125.42788 37174 ft 450 kts 131°
2026-04-30 22:55 49.64788 -125.23765 37163 ft 447 kts 131°
2026-04-30 22:56 49.57126 -125.08694 37171 ft 445 kts 131°
2026-04-30 22:57 49.47581 -124.90100 37173 ft 442 kts 131°
2026-04-30 22:58 49.39973 -124.75362 37176 ft 439 kts 131°
2026-04-30 22:59 49.28568 -124.53411 37176 ft 438 kts 131°